Location: *
(2.5500°S, 65.9667°W)
Time: 12:49:52
(UTC+00:00)

Cosmos 2173 Rocket - Pass Details

Date: 03 June 2022
Orbit: 945 x 1000 km, 83.0° (Epoch: 28 June)

Event Time Altitude Azimuth Distance (km) Brightness Sun altitude
Rises 09:43:16 0° 2° (N) 3,659 7.3 -9.9°
Reaches altitude 10° 09:45:46 10° 4° (N) 2,722 6.7 -9.4°
Maximum altitude 09:51:59 71° 87° (E) 1,042 4.4 -7.9°
Drops below altitude 10° 09:58:18 10° 170° (S) 2,765 6.3 -6.5°
Sets 10:00:51 0° 172° (S) 3,720 6.9 -5.9°
